Flag for Russia Weather past 2 weeks in Kemerovo, Russia

Now
30 °F

Clear.


Feels Like: 23 °F
Forecast: 25 / 35 °F
Wind: 8 mph from Southeast

Location: Kemerovo

Current Time: Dec 26, 2014 at 6:00:34 AM

Latest Report: Dec 26, 2014 at 5:30 AM


Visibility: 10 mi

Pressure: 29.92 "Hg

Humidity: 100%

Dew point: 30 °F

Location of KemerovoLocation

Historic Weather in Kemerovo — Graph

°F

Kemerovo temperature yesterday

Maximum temperature yesterday: 39 °F (at 10:00 AM)
Minimum temperature yesterday: 19 °F (at 12:00 AM)
Average temperature yesterday: 27 °F

Past Weeks' High & Low Weather Summary

 TemperatureHumidityPressure
High39 °F (Dec 25, 10:00 AM)100% (Dec 11, 5:00 AM)30.89 "Hg (Dec 11, 5:00 AM)
Low-8 °F (Dec 14, 8:00 AM)56% (Dec 16, 4:00 AM)29.92 "Hg (Dec 25, 4:30 PM)
Average13 °F91%30.39 "Hg
* Reported Dec 11 5:00 AM — Dec 26 5:00 AM, Kemerovo, Weather by CustomWeather, © 2014

Note: Actual official high and low records may vary slightly from our data, if they occured in-between our weather recording intervals... More about our weather records

Advertising

Kemerovo weather history for previous 24 hours

 ConditionsComfort  
Time TempWeatherWind HumidityBarometerVisibility
5:00 AM
Dec 26
30 °FMostly cloudy.8 mph100%29.92 "HgN/A
4:30 AM30 °FOvercast.10 mph100%29.92 "HgN/A
4:00 AM30 °FOvercast.10 mph100%29.92 "HgN/A
3:30 AM32 °FMostly cloudy.10 mph93%29.95 "HgN/A
3:00 AM32 °FMostly cloudy.10 mph93%29.95 "HgN/A
2:30 AM32 °FMostly cloudy.13 mph93%29.95 "HgN/A
2:00 AM32 °FMostly cloudy.13 mph93%29.95 "HgN/A
1:30 AM32 °FMostly cloudy.13 mph93%29.95 "HgN/A
1:00 AM32 °FMostly cloudy.13 mph93%29.95 "HgN/A
12:30 AM32 °FOvercast.10 mph93%29.95 "HgN/A
12:00 AM32 °FOvercast.10 mph93%29.95 "HgN/A
11:30 PM
Dec 25
32 °FOvercast.13 mph93%29.95 "HgN/A
11:00 PM32 °FOvercast.13 mph93%29.95 "HgN/A
10:30 PM32 °FOvercast.13 mph100%29.95 "HgN/A
10:00 PM32 °FOvercast.13 mph100%29.95 "HgN/A
9:30 PM32 °FOvercast.13 mph100%29.95 "HgN/A
9:00 PM32 °FOvercast.13 mph100%29.92 "HgN/A
8:30 PM32 °FSnow flurries. Overcast.13 mph100%29.92 "Hg3 mi
8:00 PM32 °FSnow flurries. Overcast.15 mph100%29.92 "Hg2 mi
7:30 PM30 °FSnow showers. Mostly cloudy.13 mph100%29.92 "Hg1 mi
7:00 PM30 °FSnow showers. Low clouds.13 mph100%29.92 "Hg1 mi
6:30 PM28 °FSnow showers. Mostly cloudy.13 mph100%29.92 "Hg1 mi
6:00 PM28 °FMostly cloudy.13 mph100%29.92 "HgN/A
5:30 PM28 °FMostly cloudy.13 mph100%29.92 "HgN/A
5:00 PM28 °FSnow showers. Low clouds.13 mph100%29.92 "Hg1 mi
4:30 PM28 °FHeavy snow. Ice fog.13 mph100%29.92 "Hg1 mi
4:00 PM28 °FHeavy snow. Ice fog.10 mph100%29.95 "Hg1 mi
3:30 PM27 °FSnow showers. Low clouds.13 mph100%29.95 "Hg1 mi
3:00 PM27 °FHeavy snow. Ice fog.13 mph100%29.95 "Hg1 mi
2:00 PM36 °FSnow flurries. More clouds than sun.13 mph70%29.95 "Hg2 mi
1:30 PM28 °FMostly cloudy.13 mph93%29.95 "HgN/A
1:00 PM36 °FMostly cloudy.13 mph70%29.95 "HgN/A
12:30 PM28 °FSnow flurries. Mostly cloudy.13 mph93%29.98 "Hg2 mi
12:00 PM36 °FSnow flurries. Mostly cloudy.10 mph70%29.98 "Hg2 mi
11:30 AM25 °FMostly cloudy.13 mph100%29.98 "Hg4 mi
11:00 AM39 °FMostly cloudy.13 mph56%29.98 "Hg4 mi
10:30 AM25 °FMostly cloudy.13 mph100%29.98 "Hg4 mi
10:00 AM39 °FFog.13 mph56%29.98 "Hg3 mi
9:30 AM25 °FSnow flurries. Mostly cloudy.13 mph100%29.98 "Hg3 mi
9:00 AM25 °FSnow flurries. Overcast.8 mph100%30.01 "Hg3 mi
8:30 AM23 °FSnow flurries. Overcast.6 mph100%30.01 "Hg2 mi
8:00 AM23 °FSnow flurries. Overcast.10 mph100%30.01 "Hg1 mi
7:30 AM23 °FSnow flurries. Low clouds.10 mph93%30.01 "Hg1 mi
7:00 AM23 °FSnow flurries. Overcast.8 mph93%30.01 "Hg2 mi
6:30 AM25 °FSnow flurries. Mostly cloudy.10 mph80%30.01 "Hg1 mi
6:00 AM25 °FSnow flurries. Mostly cloudy.8 mph80%30.01 "Hg3 mi
Weather by CustomWeather, © 2014

See weather overviewHow to use our weather pages